SCP
0 0 0 0 0 0 0 0 0 0 0 0 0 0 0 0 0 0 0 0 0 0 0 0 1 1 1 1 1 1 1 1 1 1 2 2 2 2 2 2 2 1 1
1 1 1 1 1 1 1 1 1 1 0 0 0 0 0 0 0 0 0 0 0 0 1 1 1 1 1 1 1 1 1 1 1 1 1 2 2 2 2 2 2 2 2
1 1 1 1 1 1 1 1 1 1 1 1 1 1 1 1 1 1 1 1 0 0 1 1 1 1 1 1 1 1 1 1 1 1 1 1 2 2 2 2 2 2 2
1 1 1 1 1 1 1 1 1 1 1 1 1 1 1 1 1 1 1 1 0 0 0 0 1 0 0 0 0 0 1 1 1 1 1 1 1 2 2 2 2 2 2
1 1 1 1 1 1 1 1 1 1 0 0 0 0 0 0 0 0 0 0 0 0 0 0 0 0 0 0 0 0 0 0 0 1 1 1 1 1 2 2 2 2 2
1 1 1 1 1 0 0 0 0 0 0 0 0 0 0 0 0 0 0 0 0 0 0 0 0 0 0 0 0 0 0 0 0 0 0 1 1 1 1 2 2 2 2
0 0 0 0 0 0 0 0 0 0 0 0 0 0 0 0 0 0 0 0 0 0 0 0 0 0 0 0 0 0 0 0 0 0 0 0 0 1 1 1 1 1 2
0 0 0 0 0 0 0 0 0 0 0 0 0 0 0 0 0 0 0 0 0 0 0 0 0 0 0 0 0 0 0 0 0 0 0 0 0 0 0 0 1 1 1
0 0 0 0 0 0 0 0 0 0 0 0 0 0 0 0 0 0 0 0 0 0 0 0 0 0 0 0 0 0 0 0 0 0 0 0 0 0 0 0 0 0 1
0 0 0 0 0 0 0 0 0 0 0 0 0 0 0 0 0 0 0 0 0 0 0 0 0 0 0 0 0 0 0 0 0 0 0 0 0 0 0 0 0 0 0
0 0 0 0 0 0 0 0 0 0 0 0 0 0 0 0 0 0 0 0 0 0 0 0 0 0 0 0 0 0 0 0 0 0 0 0 0 0 0 0 0 0 0
0 0 0 0 0 0 0 0 0 0 0 0 0 0 0 0 0 0 0 0 0 0 0 0 0 0 0 0 0 0 0 0 0 0 0 0 0 0 0 0 0 0 0
0 0 0 0 0 0 0 0 0 0 0 0 0 0 0 0 0 0 0 0 0 0 0 0 0 0 0 0 0 0 0 0 0 0 0 0 0 0 0 0 0 0 0
0 0 0 0 0 0 0 0 0 0 0 0 0 0 0 0 0 0 0 0 0 0 0 0 0 0 0 0 0 0 0 0 0 0 0 0 0 0 0 0 0 0 0
0 0 0 0 0 0 0 0 0 0 0 0 0 0 0 0 0 0 0 0 0 0 0 0 0 0 0 0 0 0 0 0 0 0 0 0 0 0 0 0 0 0 0
0 0 0 0 0 0 0 0 0 0 0 0 0 0 0 0 0 0 0 0 0 0 0 0 0 0 0 0 0 0 0 0 0 0 0 0 0 0 0 0 0 0 0
0 0 0 0 0 0 0 0 0 0 0 0 0 0 0 0 0 0 0 0 0 0 0 0 0 0 0 0 0 0 0 0 0 0 0 0 0 0 0 0 0 0 0
0 0 0 0 0 0 0 0 0 0 0 0 0 0 0 0 0 0 0 0 0 0 0 0 0 0 0 0 0 0 0 0 0 0 0 0 0 0 0 0 0 0 0
0 0 0 0 0 0 0 0 0 0 0 0 0 0 0 0 0 0 0 0 0 0 0 0 0 0 0 0 0 0 0 0 0 0 0 0 0 0 0 0 0 0 0
0 0 0 0 0 0 0 0 0 0 0 0 0 0 0 0 0 0 0 0 0 0 0 0 0 0 0 0 0 0 0 0 0 0 0 0 0 0 0 0 0 0 0
0 0 0 0 0 0 0 0 0 0 0 0 0 0 0 0 0 0 0 0 0 0 0 0 0 0 0 0 0 0 0 0 0 0 0 0 0 0 0 0 0 0 0
0 0 0 0 0 0 0 0 0 0 0 0 0 0 0 0 0 0 0 0 0 0 0 0 0 0 0 0 0 -0 -0 -0 -0 0 0 0 0 0 0 0 0 0 0
0 0 0 0 0 0 0 0 0 0 0 0 0 0 0 0 0 0 0 0 0 0 0 0 0 0 0 0 -0 -0 -0 -0 -0 -0 0 0 0 0 0 0 0 0 0
0 0 0 0 0 0 0 0 0 0 0 0 0 0 0 0 0 0 0 0 0 0 0 0 0 0 0 -0 -0 -0 -0 -0 -0 -0 0 0 0 0 0 0 0 0 0
0 0 0 0 0 0 0 0 0 0 0 0 0 0 0 0 0 0 0 0 0 0 0 0 0 0 0 0 0 -0 -0 -0 0 0 0 0 0 0 0 0 0 0 0
0 0 0 0 0 0 0 0 0 0 0 0 0 0 0 0 0 0 -0 0 0 0 -0 -0 -0 -0 -0 0 0 0 0 0 0 0 0 0 0 0 0 0 0 0 0
Wind_Speed
1 2 1 1 1 1 1 2 2 3 3 3 3 3 3 5 4 2 5 8 8 8 8 7 6 5 4 4 3 3 4 4 5 5 5 6 6 7 8 8 9 10 10
2 1 1 1 2 3 3 3 4 3 2 2 4 5 4 4 4 3 1 5 7 8 8 9 8 7 6 6 6 6 6 7 7 7 7 7 7 8 9 10 11 11 12
3 1 1 1 2 2 2 2 4 3 3 3 3 3 3 3 4 4 3 1 3 7 9 9 8 7 6 7 8 8 9 9 10 10 10 9 9 9 9 10 11 12 13
3 1 2 3 2 2 2 2 2 3 4 4 4 4 4 4 4 4 4 3 2 2 6 9 8 8 8 9 10 11 12 12 12 12 12 12 12 11 11 11 12 12 14
3 3 4 4 3 2 4 4 5 4 4 5 5 4 4 4 5 6 5 4 3 2 2 6 10 11 11 12 13 14 15 15 15 15 15 15 15 14 13 13 13 13 14
5 3 5 5 4 4 4 4 3 3 2 3 5 6 5 6 6 6 7 5 3 3 3 3 3 5 11 13 14 15 16 17 17 17 17 17 17 15 14 14 14 14 14
6 5 5 3 3 3 3 3 3 4 3 2 3 4 5 6 7 5 4 2 1 1 2 3 2 3 4 9 10 14 16 18 17 17 18 18 18 17 16 16 15 15 15
4 5 4 2 3 2 1 1 1 2 3 3 3 4 4 5 4 4 3 2 3 3 4 6 4 4 4 3 6 14 16 16 17 18 18 18 18 18 18 18 18 18 18
5 4 4 4 3 1 1 0 1 2 3 4 2 2 3 3 5 4 5 4 4 3 3 4 6 6 7 5 5 9 15 15 17 17 18 18 18 19 19 20 20 20 20
4 4 4 3 2 2 2 2 4 3 3 4 3 2 2 2 2 4 5 5 5 5 4 6 7 6 6 5 6 10 14 13 16 18 19 19 18 19 20 21 21 21 21
4 4 4 3 2 1 3 3 2 3 3 3 3 4 4 3 4 5 7 5 5 5 5 5 4 5 5 6 6 11 16 14 14 16 17 18 18 19 20 21 21 21 21
4 4 5 3 1 1 2 1 1 2 1 2 3 3 4 4 4 5 7 7 6 5 6 5 6 6 6 7 11 14 11 9 9 11 14 16 18 20 21 21 20 21 21
5 5 4 2 1 1 1 1 2 2 2 2 2 3 3 3 4 5 6 8 9 7 8 6 6 5 7 5 6 12 11 9 8 10 13 16 18 20 20 20 20 20 20
6 5 3 1 0 1 2 1 2 3 2 2 5 4 3 4 4 4 5 8 10 9 8 9 6 6 6 6 7 12 9 13 12 12 13 16 18 20 20 20 20 19 19
3 4 2 1 1 1 2 3 3 4 3 4 4 5 4 4 4 4 4 5 9 13 12 9 8 8 7 7 9 8 8 14 17 15 14 15 18 20 21 20 20 19 18
3 1 0 1 1 2 3 3 4 4 4 4 4 5 5 5 4 4 5 5 6 10 13 9 8 9 10 12 16 11 9 19 19 18 18 18 18 19 20 21 21 20 19
2 1 1 2 3 3 3 4 5 5 6 5 6 6 6 6 5 5 5 5 6 7 12 11 9 9 11 11 11 10 10 10 10 19 19 19 18 18 19 20 19 19 18
1 2 2 3 4 4 3 4 5 5 5 6 6 7 7 7 6 5 5 6 6 7 10 13 10 9 11 11 11 11 11 11 9 14 16 15 15 16 17 17 17 16 14
2 3 4 4 4 4 4 4 5 6 7 8 8 8 8 8 8 6 6 7 7 8 7 9 10 9 9 10 10 11 12 9 11 11 12 12 14 14 14 14 14 14 13
2 3 4 4 5 6 8 9 9 9 9 9 9 9 9 8 8 7 7 7 7 8 7 8 9 9 9 10 9 9 9 7 8 9 10 10 10 12 13 13 14 14 13
4 4 5 6 6 7 8 9 9 10 9 10 10 10 10 13 14 10 9 8 8 8 8 8 9 9 9 8 8 7 9 8 8 6 6 5 4 4 6 10 13 14 12
5 6 6 7 7 6 6 9 9 9 10 10 10 10 11 12 12 13 16 16 14 12 10 9 9 10 11 10 8 8 8 8 6 2 2 4 3 4 4 3 5 7 9
5 5 5 5 5 5 4 5 10 10 10 9 9 9 10 11 12 9 12 16 15 16 17 12 11 11 11 10 10 10 8 8 7 3 3 5 3 4 3 3 6 7 8
4 4 5 5 4 2 1 5 11 10 9 9 9 10 10 10 11 10 11 12 11 11 11 8 7 9 9 9 9 9 9 7 6 4 2 3 2 3 3 3 5 7 9
4 4 5 5 5 1 2 5 8 10 8 10 11 11 11 11 12 13 12 11 11 9 9 9 9 10 12 12 9 6 5 4 4 2 1 2 3 3 3 4 4 7 10
4 5 5 5 5 4 3 5 8 8 9 10 10 10 11 10 13 13 10 8 8 7 6 5 5 6 6 6 7 5 4 3 3 2 1 2 2 2 3 2 2 3 6
Wind_Direction
144 106 77 62 294 114 129 295 336 37 14 321 297 299 325 341 341 36 128 153 154 162 172 182 194 208 221 235 248 255 258 261 261 255 248 242 238 233 228 225 223 222 221
90 84 78 52 353 29 40 357 354 3 328 324 329 333 336 331 331 347 115 156 176 185 194 198 203 211 225 239 251 258 262 263 262 261 257 253 248 243 237 231 227 226 226
99 86 99 97 32 27 31 357 354 332 310 317 311 316 327 328 317 326 324 231 192 204 209 210 211 218 235 251 261 268 271 271 269 266 265 262 258 253 249 243 237 232 229
103 70 77 72 25 7 28 27 7 352 1 354 347 346 342 331 318 301 285 277 260 238 209 213 221 232 244 256 264 269 272 274 274 272 272 270 267 261 257 252 248 242 236
79 68 67 54 4 29 34 19 37 15 360 351 326 312 320 313 309 297 292 282 277 266 238 217 224 234 243 254 264 268 270 272 273 275 275 276 274 270 265 261 255 250 244
66 64 88 55 22 45 46 38 20 1 331 301 301 307 298 282 277 269 266 262 255 266 282 290 246 248 257 261 267 271 271 270 271 274 276 278 278 277 275 271 266 260 254
69 52 79 77 50 60 51 27 16 337 310 300 302 295 282 271 262 256 262 259 274 312 324 318 305 297 284 284 280 277 277 275 273 274 276 278 281 282 281 279 275 268 263
85 87 74 69 65 64 67 45 19 319 314 332 316 311 304 297 333 348 358 352 355 359 337 311 311 309 301 288 276 278 278 276 274 273 276 279 283 285 285 283 280 275 268
99 85 78 61 39 349 94 15 350 338 329 321 312 318 313 325 341 322 351 353 344 322 310 315 300 287 282 277 273 276 276 276 274 274 276 279 282 284 284 283 281 279 274
115 111 99 85 43 354 42 1 55 351 330 312 325 345 327 339 308 311 315 312 316 314 300 289 285 286 283 279 274 269 269 261 261 265 268 272 276 280 282 280 278 277 274
136 125 113 95 52 360 58 32 17 345 329 337 344 342 333 319 280 274 293 304 306 295 289 287 289 293 299 292 279 268 263 252 246 253 259 265 271 275 278 279 278 277 275
151 130 119 95 24 34 59 23 341 293 307 350 336 323 318 315 318 314 306 303 299 302 306 305 297 286 280 277 279 288 283 262 240 238 251 260 267 272 275 277 279 280 278
130 107 92 83 28 44 313 286 281 277 290 297 286 284 298 306 306 303 302 302 300 299 296 289 286 290 298 305 311 316 305 291 258 241 246 255 263 268 270 273 276 280 281
93 112 104 114 240 285 300 345 301 281 252 246 266 272 272 275 280 289 293 299 297 295 292 293 303 309 309 309 302 307 302 294 281 265 255 254 259 262 265 268 270 274 277
105 103 113 166 242 281 294 295 278 289 280 260 263 267 262 270 276 277 281 286 291 294 291 295 298 302 302 300 294 295 293 291 287 278 268 259 256 257 259 262 264 267 270
60 62 3 299 275 267 263 265 277 274 274 266 262 266 268 267 270 272 273 278 280 285 290 294 295 296 301 299 297 294 290 291 286 277 266 258 252 250 252 256 259 261 262
51 319 294 282 271 265 266 265 269 278 279 281 283 284 282 280 275 275 275 275 277 282 288 292 292 294 293 291 290 286 285 278 275 272 266 259 254 250 249 251 253 255 258
312 303 304 298 298 302 302 293 296 307 313 312 308 303 296 293 288 284 277 276 277 274 278 287 289 290 288 289 286 283 286 284 279 279 269 261 256 252 248 245 245 245 246
329 323 322 320 314 312 321 340 349 347 337 326 318 311 306 301 294 289 284 281 278 278 274 282 287 287 286 286 290 291 289 287 287 284 279 266 260 257 250 245 242 239 236
322 319 318 327 342 13 31 23 10 353 341 329 319 311 303 297 294 292 289 281 281 280 279 281 284 286 287 288 289 291 293 292 290 291 290 283 270 261 253 247 244 241 234
342 2 6 10 22 53 41 25 359 346 333 318 310 304 301 301 297 289 286 284 284 282 281 281 283 287 287 291 291 292 293 294 286 277 277 275 268 259 253 250 249 248 241
28 27 25 24 30 50 56 27 359 335 317 307 304 303 301 296 299 298 294 291 285 282 280 280 283 285 288 290 292 292 291 292 287 286 292 282 267 262 250 233 236 244 244
32 24 23 30 47 80 55 356 339 320 306 302 303 304 306 307 309 304 303 301 293 286 279 277 279 283 288 291 292 291 286 284 278 280 282 277 261 262 254 244 237 241 250
22 10 28 26 24 68 360 322 325 317 309 308 308 307 308 309 312 316 310 300 292 287 284 282 276 282 286 289 289 287 285 282 273 259 232 268 274 267 265 248 242 254 262
19 15 32 12 1 24 244 310 328 322 316 318 316 314 313 313 317 317 309 299 295 293 289 281 276 283 289 295 299 298 292 287 286 259 194 266 279 280 269 254 248 261 272
23 16 15 0 350 354 352 340 335 326 323 320 314 313 316 323 324 322 315 306 303 304 311 314 307 305 306 317 328 324 323 315 309 311 355 292 281 294 288 264 258 283 289